Meteo18 Weather Cam more information Meteo18 Weather Cam


Thunder radar more information blitzortung!


Rain radar more information rain snow radar



Select another period ( hide this area )

Units Period Custom range Directly to
Metric English Both
Daily Weekly Monthly Yearly
use both date-selectors for a custom range
previous Day
With this date

WeatherUnderground graphs for this period ( click here )


Daily Summary for Wednesday 21 November 2018
Time Temp. ( °C ) Dew pt. ( °C ) Wind ( km/h ) from Gust ( km/h ) Pressure ( hPa ) Humid.( % ) Rainrate ( cm )
High-2,0 -2,6 1,4 North ( 5/12 ) 3,2 1011,1 96 -
Average-3,0 -3,6 0,2 Calm #92/105 0,8 1009,0 96 -
Low-3,9 -4,6 -   0,0 1007,3 95 -
Daily Tabular details for Wednesday 21 November 2018
Time Temp. ( °C ) Dew pt. ( °C ) Wind ( km/h ) from Gust ( km/h ) Pressure ( hPa ) Humid.( % ) Rainrate ( cm )
00:03 -2,0 -2,6   Calm   1007,3 96 -
00:09 -2,2 -2,9   Calm   1007,3 95 -
00:13 -2,2 -2,8   Calm   1007,3 96 -
00:19 -2,1 -2,7   Calm   1007,3 96 -
00:23 -2,1 -2,7   Calm   1007,3 96 -
00:26 -2,2 -2,8   Calm   1007,3 96 -
00:34 -2,4 -3,1   Calm   1007,3 95 -
00:38 -2,6 -3,3   Calm   1007,7 95 -
00:44 -2,7 -3,4   Calm   1007,7 95 -
00:48 -2,8 -3,5   Calm   1007,7 95 -
00:54 -2,7 -3,2   Calm   1007,7 96 -
00:58 -2,5 -3,0   Calm   1007,7 96 -
01:04 -2,4 -3,0   Calm 1,6 1008,0 96 -
01:08 -2,5 -3,0   Calm   1008,0 96 -
01:14 -2,6 -3,1   Calm   1008,0 96 -
01:18 -2,6 -3,1   Calm   1008,0 96 -
01:24 -2,8 -3,5   Calm 1,6 1008,0 95 -
01:28 -2,7 -3,2   Calm 1,6 1008,0 96 -
01:34 -2,7 -3,2 1,4 North 1,6 1008,0 96 -
01:38 -2,7 -3,2   Calm 1,6 1008,0 96 -
01:44 -2,6 -3,1   Calm 1,6 1008,0 96 -
01:48 -2,6 -3,1   Calm   1008,4 96 -
01:54 -2,4 -3,0   Calm 1,6 1008,0 96 -
01:58 -2,3 -2,9   Calm   1008,0 96 -
02:04 -2,4 -3,0   Calm 1,6 1008,4 96 -
02:08 -2,4 -3,0   Calm 1,6 1008,4 96 -
02:14 -2,4 -3,0   Calm 1,6 1008,4 96 -
02:18 -2,4 -3,0   Calm 1,6 1008,4 96 -
02:24 -2,3 -2,9   Calm 1,6 1008,4 96 -
02:28 -2,4 -3,0 1,4 North 1,6 1008,7 96 -
02:34 -2,4 -3,0 1,4 NNW 3,2 1008,7 96 -
02:38 -2,4 -3,0   Calm   1008,7 96 -
02:44 -2,6 -3,1   Calm 1,6 1008,7 96 -
02:48 -2,5 -3,0   Calm 1,6 1008,7 96 -
02:54 -2,5 -3,0   Calm 1,6 1008,7 96 -
02:58 -2,6 -3,1   Calm   1008,7 96 -
03:03 -2,7 -3,4   Calm   1008,7 95 -
03:09 -2,8 -3,5   Calm   1008,7 95 -
03:13 -2,8 -3,5   Calm   1008,7 95 -
03:19 -2,8 -3,3   Calm   1008,7 96 -
03:23 -2,8 -3,3   Calm   1008,7 96 -
03:29 -2,6 -3,1   Calm   1008,7 96 -
03:33 -2,6 -3,1   Calm   1008,7 96 -
03:39 -2,8 -3,5   Calm   1008,7 95 -
03:43 -3,1 -3,8   Calm   1008,7 95 -
03:49 -3,0 -3,7   Calm   1008,7 95 -
03:53 -3,2 -3,9   Calm   1008,7 95 -
03:59 -3,2 -3,9   Calm   1008,7 95 -
04:03 -3,2 -3,7   Calm   1009,0 96 -
04:09 -3,2 -3,7   Calm   1009,0 96 -
04:13 -3,1 -3,6   Calm   1009,0 96 -
04:19 -3,1 -3,6   Calm   1009,0 96 -
04:23 -3,1 -3,6   Calm   1009,0 96 -
04:29 -3,0 -3,5   Calm   1009,0 96 -
04:33 -2,9 -3,4   Calm   1009,0 96 -
04:39 -2,7 -3,2   Calm 1,6 1009,0 96 -
04:43 -2,8 -3,3   Calm   1009,0 96 -
04:49 -3,1 -3,8   Calm   1009,0 95 -
04:53 -3,2 -3,9 1,4 NNE 1,6 1009,0 95 -
04:59 -3,3 -4,0   Calm 1,6 1009,4 95 -
05:03 -3,2 -3,9   Calm   1009,4 95 -
05:09 -3,2 -3,9   Calm   1009,4 95 -
05:13 -3,1 -3,8   Calm   1009,4 95 -
05:19 -3,3 -4,0   Calm 1,6 1009,7 95 -
05:23 -3,6 -4,3   Calm   1009,7 95 -
05:29 -3,8 -4,5   Calm   1009,7 95 -
05:33 -3,8 -4,5   Calm   1009,7 95 -
05:39 -3,8 -4,5   Calm   1010,0 95 -
05:43 -3,7 -4,4   Calm   1009,7 95 -
05:49 -3,7 -4,4   Calm   1009,7 95 -
05:53 -3,7 -4,4   Calm   1009,7 95 -
05:59 -3,7 -4,2   Calm   1010,0 96 -
06:03 -3,7 -4,2   Calm   1010,0 96 -
06:09 -3,6 -4,1   Calm 1,6 1010,0 96 -
06:13 -3,5 -4,0   Calm 1,6 1009,7 96 -
06:19 -3,4 -3,9   Calm 1,6 1010,0 96 -
06:23 -3,5 -4,0   Calm 1,6 1010,0 96 -
06:29 -3,6 -4,1   Calm   1010,0 96 -
06:33 -3,6 -4,1 1,4 WNW 1,6 1010,0 96 -
06:39 -3,7 -4,4   Calm 1,6 1010,0 95 -
06:43 -3,7 -4,2   Calm   1010,0 96 -
06:49 -3,7 -4,2   Calm 1,6 1010,0 96 -
06:53 -3,7 -4,2   Calm 1,6 1010,0 96 -
06:59 -3,7 -4,2   Calm 1,6 1010,0 96 -
07:03 -3,7 -4,2 1,4 North 1,6 1010,0 96 -
07:09 -3,9 -4,6 1,4 North 1,6 1010,0 95 -
07:13 -3,9 -4,4 1,4 NNW 1,6 1010,0 96 -
07:17 -3,6 -4,1   Calm 1,6 1010,4 96 -
07:24 -3,7 -4,2   Calm 1,6 1010,4 96 -
07:28 -3,7 -4,2 1,4 NNW 1,6 1010,4 96 -
07:34 -3,3 -3,8 1,4 NNW 3,2 1010,4 96 -
07:38 -3,2 -3,7 1,4 NW 3,2 1010,4 96 -
07:44 -2,9 -3,4   Calm 3,2 1010,4 96 -
07:48 -2,8 -3,3   Calm 1,6 1010,4 96 -
07:54 -3,4 -3,9 1,4 North 1,6 1010,7 96 -
07:58 -3,4 -3,9 1,4 NNW 1,6 1010,7 96 -
08:04 -3,3 -3,8   Calm 1,6 1010,7 96 -
08:08 -2,9 -3,4   Calm 1,6 1010,7 96 -
08:14 -2,8 -3,3   Calm 1,6 1010,7 96 -
08:18 -2,7 -3,2   Calm   1010,7 96 -
08:24 -2,8 -3,3   Calm 1,6 1010,7 96 -
08:28 -2,8 -3,3   Calm   1011,1 96 -
08:34 -2,9 -3,4   Calm   1011,1 96 -
08:38 -2,8 -3,3   Calm 1,6 1011,1 96 -
08:44 -2,7 -3,2   Calm   1011,1 96 -
Daily Summary for Wednesday 21 November 2018
Time Temp. ( °C ) Dew pt. ( °C ) Wind ( km/h ) from Gust ( km/h ) Pressure ( hPa ) Humid.( % ) Rainrate ( cm )
High-2,0 -2,6 1,4 North ( 5/12 ) 3,2 1011,1 96 -
Average-3,0 -3,6 0,2 Calm #92/105 0,8 1009,0 96 -
Low-3,9 -4,6 -   0,0 1007,3 95 -
Daily Tabular details for Wednesday 21 November 2018
Time Temp. ( °C ) Dew pt. ( °C ) Wind ( km/h ) from Gust ( km/h ) Pressure ( hPa ) Humid.( % ) Rainrate ( cm )
00:03 -2,0 -2,6   Calm   1007,3 96 -
00:09 -2,2 -2,9   Calm   1007,3 95 -
00:13 -2,2 -2,8   Calm   1007,3 96 -
00:19 -2,1 -2,7   Calm   1007,3 96 -
00:23 -2,1 -2,7   Calm   1007,3 96 -
00:26 -2,2 -2,8   Calm   1007,3 96 -
00:34 -2,4 -3,1   Calm   1007,3 95 -
00:38 -2,6 -3,3   Calm   1007,7 95 -
00:44 -2,7 -3,4   Calm   1007,7 95 -
00:48 -2,8 -3,5   Calm   1007,7 95 -
00:54 -2,7 -3,2   Calm   1007,7 96 -
00:58 -2,5 -3,0   Calm   1007,7 96 -
01:04 -2,4 -3,0   Calm 1,6 1008,0 96 -
01:08 -2,5 -3,0   Calm   1008,0 96 -
01:14 -2,6 -3,1   Calm   1008,0 96 -
01:18 -2,6 -3,1   Calm   1008,0 96 -
01:24 -2,8 -3,5   Calm 1,6 1008,0 95 -
01:28 -2,7 -3,2   Calm 1,6 1008,0 96 -
01:34 -2,7 -3,2 1,4 North 1,6 1008,0 96 -
01:38 -2,7 -3,2   Calm 1,6 1008,0 96 -
01:44 -2,6 -3,1   Calm 1,6 1008,0 96 -
01:48 -2,6 -3,1   Calm   1008,4 96 -
01:54 -2,4 -3,0   Calm 1,6 1008,0 96 -
01:58 -2,3 -2,9   Calm   1008,0 96 -
02:04 -2,4 -3,0   Calm 1,6 1008,4 96 -
02:08 -2,4 -3,0   Calm 1,6 1008,4 96 -
02:14 -2,4 -3,0   Calm 1,6 1008,4 96 -
02:18 -2,4 -3,0   Calm 1,6 1008,4 96 -
02:24 -2,3 -2,9   Calm 1,6 1008,4 96 -
02:28 -2,4 -3,0 1,4 North 1,6 1008,7 96 -
02:34 -2,4 -3,0 1,4 NNW 3,2 1008,7 96 -
02:38 -2,4 -3,0   Calm   1008,7 96 -
02:44 -2,6 -3,1   Calm 1,6 1008,7 96 -
02:48 -2,5 -3,0   Calm 1,6 1008,7 96 -
02:54 -2,5 -3,0   Calm 1,6 1008,7 96 -
02:58 -2,6 -3,1   Calm   1008,7 96 -
03:03 -2,7 -3,4   Calm   1008,7 95 -
03:09 -2,8 -3,5   Calm   1008,7 95 -
03:13 -2,8 -3,5   Calm   1008,7 95 -
03:19 -2,8 -3,3   Calm   1008,7 96 -
03:23 -2,8 -3,3   Calm   1008,7 96 -
03:29 -2,6 -3,1   Calm   1008,7 96 -
03:33 -2,6 -3,1   Calm   1008,7 96 -
03:39 -2,8 -3,5   Calm   1008,7 95 -
03:43 -3,1 -3,8   Calm   1008,7 95 -
03:49 -3,0 -3,7   Calm   1008,7 95 -
03:53 -3,2 -3,9   Calm   1008,7 95 -
03:59 -3,2 -3,9   Calm   1008,7 95 -
04:03 -3,2 -3,7   Calm   1009,0 96 -
04:09 -3,2 -3,7   Calm   1009,0 96 -
04:13 -3,1 -3,6   Calm   1009,0 96 -
04:19 -3,1 -3,6   Calm   1009,0 96 -
04:23 -3,1 -3,6   Calm   1009,0 96 -
04:29 -3,0 -3,5   Calm   1009,0 96 -
04:33 -2,9 -3,4   Calm   1009,0 96 -
04:39 -2,7 -3,2   Calm 1,6 1009,0 96 -
04:43 -2,8 -3,3   Calm   1009,0 96 -
04:49 -3,1 -3,8   Calm   1009,0 95 -
04:53 -3,2 -3,9 1,4 NNE 1,6 1009,0 95 -
04:59 -3,3 -4,0   Calm 1,6 1009,4 95 -
05:03 -3,2 -3,9   Calm   1009,4 95 -
05:09 -3,2 -3,9   Calm   1009,4 95 -
05:13 -3,1 -3,8   Calm   1009,4 95 -
05:19 -3,3 -4,0   Calm 1,6 1009,7 95 -
05:23 -3,6 -4,3   Calm   1009,7 95 -
05:29 -3,8 -4,5   Calm   1009,7 95 -
05:33 -3,8 -4,5   Calm   1009,7 95 -
05:39 -3,8 -4,5   Calm   1010,0 95 -
05:43 -3,7 -4,4   Calm   1009,7 95 -
05:49 -3,7 -4,4   Calm   1009,7 95 -
05:53 -3,7 -4,4   Calm   1009,7 95 -
05:59 -3,7 -4,2   Calm   1010,0 96 -
06:03 -3,7 -4,2   Calm   1010,0 96 -
06:09 -3,6 -4,1   Calm 1,6 1010,0 96 -
06:13 -3,5 -4,0   Calm 1,6 1009,7 96 -
06:19 -3,4 -3,9   Calm 1,6 1010,0 96 -
06:23 -3,5 -4,0   Calm 1,6 1010,0 96 -
06:29 -3,6 -4,1   Calm   1010,0 96 -
06:33 -3,6 -4,1 1,4 WNW 1,6 1010,0 96 -
06:39 -3,7 -4,4   Calm 1,6 1010,0 95 -
06:43 -3,7 -4,2   Calm   1010,0 96 -
06:49 -3,7 -4,2   Calm 1,6 1010,0 96 -
06:53 -3,7 -4,2   Calm 1,6 1010,0 96 -
06:59 -3,7 -4,2   Calm 1,6 1010,0 96 -
07:03 -3,7 -4,2 1,4 North 1,6 1010,0 96 -
07:09 -3,9 -4,6 1,4 North 1,6 1010,0 95 -
07:13 -3,9 -4,4 1,4 NNW 1,6 1010,0 96 -
07:17 -3,6 -4,1   Calm 1,6 1010,4 96 -
07:24 -3,7 -4,2   Calm 1,6 1010,4 96 -
07:28 -3,7 -4,2 1,4 NNW 1,6 1010,4 96 -
07:34 -3,3 -3,8 1,4 NNW 3,2 1010,4 96 -
07:38 -3,2 -3,7 1,4 NW 3,2 1010,4 96 -
07:44 -2,9 -3,4   Calm 3,2 1010,4 96 -
07:48 -2,8 -3,3   Calm 1,6 1010,4 96 -
07:54 -3,4 -3,9 1,4 North 1,6 1010,7 96 -
07:58 -3,4 -3,9 1,4 NNW 1,6 1010,7 96 -
08:04 -3,3 -3,8   Calm 1,6 1010,7 96 -
08:08 -2,9 -3,4   Calm 1,6 1010,7 96 -
08:14 -2,8 -3,3   Calm 1,6 1010,7 96 -
08:18 -2,7 -3,2   Calm   1010,7 96 -
08:24 -2,8 -3,3   Calm 1,6 1010,7 96 -
08:28 -2,8 -3,3   Calm   1011,1 96 -
08:34 -2,9 -3,4   Calm   1011,1 96 -
08:38 -2,8 -3,3   Calm 1,6 1011,1 96 -
08:44 -2,7 -3,2   Calm   1011,1 96 -

Download your copy of this data-set  here

Our weather-data as stored at Weather Underground. Script developed by Jim McMurry. Adapted for the template by Leuven-Template.eu

You find our weather info also at:

Weather Underground

Equipment we use:

Weather-station
Davis Vue

Weather-program
Meteobridge

Weather-server
Raspberry PI 2 B+

Provider
1 and 1

Davis Vue

Meteobridge

Raspberry PI 2 B+

1 and 1